[[{"header":{"parameterUnit":"m.s-1","parameterCategory":1,"la1":30.2991,"la2":30.254,"lo1":-89.0895,"lo2":-89.0444,"dy":0.0017,"dx":0.0017,"nx":28,"ny":28,"refTime":"2025-05-22T21:00:00:Z","depth":0,"parameterNumber":2,"parameterNumberName":"U-component_of_WINDS"},"data":[0,0,0,0,0,0,0,0,0,0,0,0,0,0,0,0,0,0,0,0,0,0,0,0,0,0,0,0,0,0,0,0,0,0,0,0,0,0,0,0,0,0,0,0,0,0,0,0,0,0,0,0,0,0,0,0,0,0,1.2373,1.2374,0,1.2457,1.2458,1.2459,1.2458,1.2456,1.2455,1.2454,1.2542,1.2545,1.2549,0,0,0,0,0,0,0,0,0,0,0,0,0,1.2213,1.2216,1.2373,1.2374,1.2375,1.2457,1.2458,1.2459,1.2458,1.2456,1.2455,1.2454,1.2541,1.2545,1.2549,0,0,0,0,0,0,0,0,0,0,0,0,0,1.2289,1.2217,1.2373,1.2384,1.2386,1.2457,1.2458,1.246,1.2458,1.2456,1.2455,1.2453,1.254,1.2544,1.255,1.2615,0,0,1.2565,1.2567,0,0,0,0,0,0,0,0,1.2284,1.2294,1.2382,1.2384,1.2386,1.2445,1.2434,1.2512,1.2458,1.2431,1.2454,1.2452,1.2511,1.2519,1.2538,1.2619,1.2623,1.2566,1.2569,1.2571,1.2572,0,0,0,0,0,0,0,1.2279,1.2291,1.2407,1.2383,1.2386,1.2386,1.2394,1.2449,1.248,1.2433,1.2433,1.2443,1.2512,1.2533,1.254,1.2624,1.2565,1.257,1.2573,1.2575,1.2762,1.2763,0,0,0,0,0,0,1.2271,1.2286,1.2404,1.2409,1.233,1.239,1.24,1.2428,1.2479,1.2485,1.2444,1.2443,1.2525,1.2534,1.2543,1.2622,1.2571,1.2576,1.2578,1.276,1.2762,1.2764,0,0,0,0,0,0,1.2268,1.2282,1.2401,1.2348,1.2363,1.2394,1.2426,1.243,1.2451,1.2487,1.2493,1.246,1.2524,1.2536,1.2597,1.2625,1.2578,1.2582,1.2757,1.276,1.2763,1.2781,0,0,0,0,0,0,1.2263,1.2281,1.2306,1.2348,1.2366,1.2452,1.2428,1.2433,1.246,1.2458,1.2504,1.251,1.2524,1.2589,1.2602,1.2632,1.2586,1.2755,1.2759,1.2762,1.2778,1.2785,1.279,0,0,0,0,0,1.2258,1.2308,1.2307,1.2321,1.2398,1.2454,1.2464,1.2479,1.2462,1.2488,1.2511,1.2508,1.262,1.2595,1.2609,1.2641,1.2753,1.2758,1.2762,1.2776,1.2783,1.279,0,0,0,0,0,0,1.2269,1.2314,1.2313,1.2379,1.2412,1.2454,1.2486,1.2486,1.2526,1.2523,1.254,1.255,1.2611,1.2632,1.2604,1.2707,1.2685,1.2692,1.269,1.2698,1.2704,1.2697,1.2591,0,0,0,0,0,1.2279,1.232,1.2358,1.2412,1.2429,1.2455,1.248,1.2488,1.2524,1.2538,1.2566,1.2601,1.2644,1.2672,1.2714,1.2781,1.2791,1.281,1.2816,1.282,1.2827,1.2863,1.2872,1.2778,1.2778,1.2778,0,0,1.23,1.233,1.2356,1.2415,1.2442,1.2485,1.2467,1.2513,1.2545,1.2546,1.2604,1.2625,1.2666,1.273,1.276,1.275,1.2855,1.2826,1.2829,1.2833,1.2868,1.2877,1.2885,1.2781,1.2781,1.278,0,0,1.2361,1.2388,1.2436,1.2463,1.2503,1.252,1.2531,1.2572,1.2586,1.2645,1.2646,1.2684,1.2758,1.2787,1.2811,1.2881,1.288,1.2894,1.2924,1.296,1.2967,1.2974,1.2998,1.3007,1.29,1.29,1.29,0,1.2383,1.2447,1.2461,1.2507,1.2533,1.2534,1.2583,1.2608,1.2661,1.2679,1.2667,1.2759,1.2786,1.2857,1.2873,1.2893,1.2907,1.2889,1.2965,1.2971,1.2978,1.3001,1.3011,1.2902,1.2902,1.2901,1.2901,0,1.2471,1.2516,1.255,1.2599,1.2629,1.2676,1.2697,1.2726,1.2731,1.2749,1.2808,1.2841,1.2889,1.2906,1.2912,1.2977,1.2969,1.2961,1.2939,1.2988,1.301,1.302,1.2904,1.2903,1.2903,1.2902,0,0,1.2543,1.2598,1.261,1.2632,1.2676,1.2711,1.2758,1.2804,1.2828,1.2864,1.2903,1.2965,1.2957,1.2985,1.2994,1.3025,1.3078,1.3013,1.3014,1.3023,1.315,1.3156,1.3167,1.3077,1.3079,1.308,1.3147,0,1.2608,1.2691,1.2704,1.2776,1.2817,1.2818,1.2859,1.2891,1.2908,1.2946,1.2966,1.3009,1.2995,1.3011,1.3042,1.3065,1.3103,1.306,1.3114,1.3116,1.3104,1.3179,1.3185,1.3247,1.3156,1.3157,1.3158,0,1.2695,1.2732,1.2809,1.2846,1.2864,1.29,1.2943,1.2978,1.3014,1.3025,1.3055,1.306,1.3109,1.3084,1.3152,1.3122,1.3145,1.3159,1.3162,1.3168,1.314,1.3186,1.3267,1.3276,1.3172,1.3171,1.317,0,1.2739,1.2808,1.2862,1.2881,1.2926,1.2952,1.2972,1.3006,1.3032,1.307,1.3087,1.313,1.3153,1.3186,1.3203,1.3184,1.3269,1.3246,1.3279,1.3279,1.3297,1.3296,1.3383,1.3312,1.3312,1.3312,1.3312,0,1.281,1.2857,1.2882,1.2916,1.2968,1.2982,1.3034,1.3053,1.3083,1.3121,1.3125,1.316,1.318,1.3218,1.3231,1.3285,1.3295,1.3305,1.3308,1.3305,1.3304,1.332,1.3316,1.3315,1.3314,1.3313,1.3313,0,1.2868,1.2887,1.2946,1.2984,1.2994,1.3031,1.3063,1.3096,1.3112,1.316,1.3172,1.3199,1.3243,1.3263,1.3319,1.3328,1.3389,1.3389,1.3376,1.3378,1.3409,1.3406,1.3509,1.3523,1.3444,1.3445,1.3445,0,1.2913,1.2948,1.2989,1.3014,1.3034,1.3075,1.3101,1.3116,1.3144,1.3186,1.3214,1.3258,1.3295,1.3367,1.3392,1.3434,1.3435,1.3468,1.3442,1.3437,1.3435,1.3433,1.3436,1.3473,1.3474,1.3475,1.3475,0,1.2989,1.2996,1.3034,1.3074,1.3105,1.3138,1.317,1.3191,1.3211,1.3242,1.3287,1.3315,1.3371,1.3416,1.3459,1.3481,1.3482,1.3483,1.3493,1.349,1.3481,1.3486,1.339,1.3481,1.348,1.348,1.348,1.3479,1.3041,1.3073,1.3106,1.3147,1.3173,1.3202,1.3234,1.3255,1.3292,1.3338,1.3345,1.3394,1.3428,1.3486,1.3509,1.3547,1.3539,1.3554,1.3557,1.356,1.3562,1.3475,1.3555,1.3555,1.3555,1.3555,1.3555,0,1.3118,1.3138,1.3176,1.3221,1.3253,1.325,1.3285,1.3312,1.3355,1.3386,1.3421,1.3473,1.3516,1.3543,1.3586,1.3612,1.3613,1.3622,1.3621,1.3625,1.3567,1.3554,1.362,1.362,1.362,1.362,1.362,1.362,1.3161,1.3213,1.3224,1.3289,1.331,1.3357,1.3377,1.3404,1.3429,1.3486,1.3521,1.3539,1.3568,1.3613,1.3652,1.3659,1.3675,1.3685,1.3692,1.3637,1.363,1.3623,1.3611,1.3688,1.3688,1.3747,1.3747,1.3748]},{"header":{"parameterUnit":"m.s-1","parameterCategory":1,"la1":30.2991,"la2":30.254,"lo1":-89.0895,"lo2":-89.0444,"dy":0.0017,"dx":0.0017,"nx":28,"ny":28,"refTime":"2025-05-22T21:00:00:Z","depth":0,"parameterNumber":3,"parameterNumberName":"V-component_of_WINDS"},"data":[0,0,0,0,0,0,0,0,0,0,0,0,0,0,0,0,0,0,0,0,0,0,0,0,0,0,0,0,0,0,0,0,0,0,0,0,0,0,0,0,0,0,0,0,0,0,0,0,0,0,0,0,0,0,0,0,0,0,3.1372,3.1373,0,3.147,3.1471,3.1472,3.147,3.1469,3.1468,3.1466,3.1563,3.1566,3.157,0,0,0,0,0,0,0,0,0,0,0,0,0,3.1179,3.1183,3.1371,3.1373,3.1374,3.1469,3.1471,3.1472,3.147,3.1469,3.1467,3.1466,3.1561,3.1566,3.157,0,0,0,0,0,0,0,0,0,0,0,0,0,3.1269,3.1184,3.1371,3.1385,3.1387,3.1469,3.1471,3.1472,3.1471,3.1469,3.1467,3.1465,3.156,3.1565,3.1571,3.1645,0,0,3.1588,3.1591,0,0,0,0,0,0,0,0,3.1263,3.1276,3.1382,3.1384,3.1387,3.1456,3.1438,3.153,3.1471,3.1439,3.1466,3.1464,3.1528,3.1536,3.1559,3.1649,3.1653,3.1589,3.1592,3.1594,3.1596,0,0,0,0,0,0,0,3.1257,3.1271,3.141,3.1383,3.1386,3.1385,3.1395,3.1456,3.1493,3.1442,3.1442,3.1454,3.1529,3.1553,3.1561,3.1655,3.1588,3.1594,3.1597,3.1599,3.1811,3.1813,0,0,0,0,0,0,3.1249,3.1266,3.1407,3.1413,3.1319,3.139,3.1402,3.1435,3.1493,3.1499,3.1455,3.1453,3.1545,3.1555,3.1565,3.1656,3.1594,3.16,3.1603,3.1809,3.1812,3.1814,0,0,0,0,0,0,3.1245,3.1261,3.1403,3.134,3.1358,3.1395,3.1433,3.1438,3.1463,3.1503,3.1509,3.1473,3.1544,3.1557,3.1625,3.1659,3.1602,3.1607,3.1806,3.181,3.1813,3.1838,0,0,0,0,0,0,3.1239,3.126,3.1289,3.1341,3.1361,3.1463,3.1435,3.1442,3.1473,3.1471,3.1522,3.1528,3.1543,3.1617,3.1631,3.1666,3.1612,3.1804,3.1808,3.1812,3.1834,3.1841,3.1848,0,0,0,0,0,3.1232,3.1291,3.1291,3.1308,3.1399,3.1465,3.1477,3.1495,3.1476,3.1505,3.1531,3.1526,3.1653,3.1624,3.164,3.1677,3.1801,3.1807,3.1812,3.1831,3.184,3.1848,0,0,0,0,0,0,3.1241,3.1298,3.1298,3.1376,3.1416,3.1465,3.1502,3.1503,3.1549,3.1545,3.1563,3.1575,3.1644,3.1667,3.1634,3.1751,3.1725,3.1733,3.1734,3.1743,3.175,3.1743,3.1617,0,0,0,0,0,3.1252,3.1303,3.1349,3.1413,3.1434,3.1465,3.1494,3.1504,3.1546,3.1563,3.1594,3.1633,3.1682,3.1714,3.1761,3.1837,3.1848,3.187,3.1877,3.1883,3.189,3.1933,3.1943,3.1831,3.1831,3.1831,0,0,3.1275,3.1313,3.1343,3.1416,3.1448,3.1499,3.1479,3.1533,3.1571,3.1571,3.1638,3.1662,3.1707,3.1781,3.1814,3.1802,3.1923,3.1889,3.1893,3.1897,3.1939,3.195,3.1959,3.1834,3.1834,3.1833,0,0,3.1344,3.1377,3.1435,3.1468,3.1518,3.1538,3.1552,3.1602,3.1618,3.1686,3.1687,3.1732,3.1815,3.1848,3.1875,3.1957,3.1955,3.1972,3.2008,3.2049,3.2058,3.2066,3.2096,3.2106,3.1979,3.1979,3.1979,0,3.1366,3.1445,3.1464,3.1519,3.1551,3.1555,3.1612,3.1643,3.1705,3.1726,3.1712,3.1818,3.1848,3.193,3.195,3.1972,3.1988,3.1966,3.2056,3.2064,3.2071,3.21,3.2111,3.198,3.198,3.198,3.198,0,3.147,3.1524,3.1564,3.1626,3.1662,3.1718,3.1745,3.1779,3.1786,3.1808,3.1877,3.1914,3.1969,3.1989,3.1996,3.2072,3.2063,3.2052,3.2025,3.2084,3.2111,3.2122,3.1983,3.1982,3.1982,3.1981,0,0,3.1546,3.1619,3.1633,3.1662,3.1717,3.1759,3.1815,3.1871,3.19,3.1942,3.199,3.2061,3.2052,3.2083,3.2093,3.213,3.2193,3.2114,3.2116,3.2128,3.2279,3.2288,3.23,3.2192,3.2194,3.2195,3.2276,0,3.1621,3.1723,3.1742,3.183,3.188,3.1885,3.1933,3.1972,3.1994,3.2039,3.2062,3.2113,3.2096,3.2116,3.2152,3.2178,3.2224,3.2172,3.2235,3.2237,3.2225,3.2314,3.2323,3.2397,3.2286,3.2288,3.2289,0,3.1722,3.1769,3.1863,3.1913,3.1935,3.1979,3.2031,3.2075,3.2119,3.2132,3.2167,3.2174,3.2232,3.2203,3.2282,3.2247,3.2274,3.229,3.2293,3.23,3.2267,3.2324,3.2421,3.2432,3.2306,3.2305,3.2304,0,3.1769,3.1856,3.1924,3.1948,3.2007,3.2038,3.2064,3.2107,3.2139,3.2184,3.2206,3.2257,3.2285,3.2323,3.2343,3.232,3.2422,3.2394,3.2434,3.2434,3.2455,3.2454,3.2559,3.2472,3.2472,3.2471,3.2471,0,3.1851,3.1908,3.1946,3.1988,3.2052,3.2073,3.2135,3.216,3.2198,3.2244,3.225,3.2292,3.2316,3.2362,3.2377,3.2441,3.2453,3.2465,3.2469,3.2465,3.2464,3.2483,3.2479,3.2474,3.2474,3.2473,3.2473,0,3.1915,3.1942,3.2016,3.2067,3.2082,3.2127,3.217,3.221,3.2232,3.229,3.2305,3.2339,3.2393,3.2417,3.2483,3.2494,3.2567,3.2566,3.2553,3.2554,3.2593,3.2589,3.2714,3.2732,3.2633,3.2634,3.2635,0,3.1966,3.201,3.2066,3.2099,3.2126,3.2177,3.2211,3.2233,3.2267,3.2321,3.2355,3.241,3.2455,3.2542,3.2572,3.2623,3.2624,3.2664,3.2631,3.2626,3.2625,3.2622,3.2627,3.267,3.2671,3.2672,3.2672,0,3.2053,3.2065,3.2114,3.2168,3.2208,3.2252,3.2294,3.2319,3.2348,3.2386,3.2443,3.2478,3.2547,3.2601,3.2655,3.268,3.2681,3.2683,3.2695,3.2692,3.2682,3.2688,3.257,3.268,3.2679,3.2678,3.2678,3.2678,3.2112,3.2152,3.2199,3.2253,3.2288,3.2327,3.2368,3.2396,3.2444,3.2503,3.2513,3.2573,3.2616,3.2688,3.2715,3.2762,3.2752,3.2769,3.2774,3.2778,3.2781,3.2674,3.2772,3.2772,3.2772,3.2771,3.2771,0,3.22,3.2231,3.2281,3.2341,3.2384,3.2382,3.2429,3.2465,3.2519,3.2559,3.2605,3.267,3.2723,3.2757,3.2811,3.2842,3.2844,3.2855,3.2853,3.2859,3.2786,3.2771,3.2853,3.2853,3.2853,3.2853,3.2853,3.2853,3.2251,3.2319,3.2337,3.2422,3.2451,3.2512,3.2539,3.2576,3.2609,3.2682,3.2727,3.2749,3.2788,3.2844,3.2893,3.2901,3.2921,3.2933,3.2941,3.2873,3.2864,3.2856,3.2842,3.2937,3.2937,3.301,3.3011,3.3011]}]]